Location: Unspecified
(0.0000°N, 0.0000°E)
Time: 18:27:21
(UTC+00:00)

N. Korean satellite - Visible Passes

Search period start: 28 November 2022 00:00
Search period end: 08 December 2022 00:00
Orbit: 422 x 454 km, 97.3° (Epoch: 28 November)

Date Brightness Start Highest point End Pass type
(mag) Time Alt. Az. Time Alt. Az. Time Alt. Az.
28 Nov 8.6 04:29:50 10° NE 04:32:45 28° E 04:35:40 10° SSE visible
30 Nov 7.2 04:44:35 10° NNE 04:47:51 53° E 04:51:06 10° S visible
01 Dec 9.9 04:08:11 10° E 04:09:12 11° E 04:10:13 10° ESE visible
02 Dec 6.2 04:59:27 10° N 05:02:46 76° W 05:06:04 10° SSW visible
03 Dec 9.2 04:21:35 10° NE 04:24:03 19° E 04:26:30 10° SSE visible
04 Dec 6.8 05:14:26 10° N 05:17:33 37° W 05:20:38 10° SSW visible
05 Dec 8.1 04:35:41 10° NNE 04:38:45 34° E 04:41:47 10° SSE visible
07 Dec 6.7 04:50:01 10° NNE 04:53:17 68° E 04:56:33 10° S visible
